Theta_e
322 321 322 323 324 324 324 324 325 327 327 327 327 327 328 329 330 330 331 332 335 340 341 341 340 337 335 331 332 330 332 330 336 338 342 344 343 345 346 345 343 345 347 347
324 322 324 325 325 325 324 324 324 325 325 325 325 325 327 327 328 329 329 330 331 337 340 343 342 341 339 336 333 333 333 333 336 340 340 341 344 343 345 345 345 343 348 348
324 326 325 324 324 324 323 323 323 324 325 326 326 325 325 326 327 329 329 330 330 331 336 344 345 343 342 341 337 336 333 336 334 339 339 341 341 342 343 343 344 344 345 348
325 326 325 324 323 324 323 324 324 324 325 326 327 327 329 329 327 327 328 329 330 333 334 341 345 346 344 344 342 338 336 335 337 337 339 339 341 342 341 343 342 343 346 347
326 326 325 324 323 324 323 326 326 326 326 327 327 327 328 328 328 328 329 329 332 332 334 335 337 344 344 344 344 343 338 336 336 339 337 339 339 340 340 339 343 341 345 345
327 328 325 325 324 324 325 325 326 326 326 327 327 328 328 329 329 329 332 333 333 333 336 337 339 342 342 344 345 346 347 341 338 337 340 334 336 339 340 339 340 343 348 349
329 327 327 325 325 325 325 326 327 329 329 329 332 328 330 331 331 332 334 336 337 337 339 341 341 341 343 343 344 345 346 352 349 344 343 342 337 336 339 338 338 343 348 353
331 330 328 327 326 326 327 327 328 333 331 331 333 332 331 333 331 334 339 339 338 338 339 340 340 340 342 343 342 342 343 346 347 354 352 349 347 344 339 341 337 341 343 350
331 329 328 327 327 327 328 329 329 330 331 331 330 330 335 335 336 338 340 339 338 336 336 335 335 334 334 335 336 337 338 340 340 345 346 352 354 352 347 343 343 338 340 347
331 333 328 328 327 327 327 328 329 331 334 335 332 335 336 338 340 339 339 338 336 335 333 333 332 332 331 330 330 331 331 332 333 335 336 339 345 353 355 353 349 346 346 341
328 330 331 327 327 327 328 328 330 330 331 333 333 335 344 344 342 341 338 336 335 333 332 331 330 329 328 328 327 327 327 327 328 329 329 331 338 343 344 350 353 352 350 348
333 334 333 329 329 328 328 329 330 332 332 330 331 333 340 340 339 338 337 335 333 332 331 330 328 328 327 326 326 325 325 324 324 324 325 327 329 334 337 346 341 346 348 349
337 333 332 331 330 330 329 331 331 333 335 336 336 332 338 337 338 336 336 334 333 332 331 329 328 327 325 324 324 324 323 323 323 322 322 323 328 330 331 337 345 348 346 347
333 333 333 332 332 330 333 334 333 334 335 333 333 333 332 338 337 335 332 330 329 328 327 328 328 326 322 321 320 321 321 321 322 323 323 323 322 326 331 333 333 341 347 348
332 334 331 331 331 331 331 330 330 330 329 329 328 327 327 334 332 331 330 328 326 323 321 323 327 325 322 319 319 319 319 319 321 321 322 323 323 322 325 331 332 332 336 346
334 335 331 330 328 326 325 325 324 323 322 323 322 322 329 327 324 323 323 322 321 320 321 321 321 321 320 319 318 319 320 319 320 320 322 322 322 322 322 325 329 331 333 337
331 331 332 331 326 325 325 324 323 323 324 327 327 327 325 323 321 320 320 320 321 320 320 321 321 320 319 318 318 319 319 319 320 320 320 320 321 321 322 324 326 328 331 335
328 329 329 330 327 328 325 326 326 325 324 323 324 325 322 321 320 319 319 319 319 319 320 321 319 319 319 319 320 320 321 320 320 320 320 320 321 321 321 323 325 326 329 332
328 327 329 329 327 326 324 327 325 325 326 324 324 323 321 320 319 319 319 319 320 321 321 321 321 320 320 321 321 321 321 321 320 321 322 320 320 321 322 323 324 324 327 329
322 327 326 327 326 327 329 323 321 320 323 321 320 320 319 319 320 318 321 319 321 320 320 320 320 320 320 320 321 320 320 320 320 320 320 319 319 322 322 323 324 325 327 328
324 324 326 324 325 324 324 321 319 323 325 320 318 318 318 320 320 322 321 321 319 319 318 318 318 319 319 320 320 320 320 320 319 319 318 318 318 318 321 322 321 323 324 324
324 326 326 327 327 327 321 321 324 321 319 318 318 318 319 319 319 319 318 319 317 317 316 316 318 319 320 320 320 321 320 320 319 319 318 319 318 317 319 319 320 322 321 325
323 326 329 325 324 324 319 318 317 317 317 318 318 318 318 319 318 318 318 318 317 317 317 317 318 319 320 319 320 321 320 320 319 319 319 319 319 318 319 320 321 321 324 325
322 322 320 320 318 317 317 316 316 318 319 318 317 317 317 318 317 318 318 316 315 315 317 317 318 318 319 319 319 320 320 320 319 320 319 319 319 319 319 319 321 322 324 325
320 319 319 319 318 317 317 318 318 318 317 317 317 316 316 318 317 316 317 316 315 316 317 317 318 318 319 318 317 317 318 318 319 319 319 320 320 319 319 319 320 321 321 323
316 318 317 321 319 319 319 318 317 318 318 317 316 316 316 315 316 315 314 315 315 315 316 317 317 317 316 314 313 314 315 315 318 319 320 320 319 319 319 319 320 321 320 321
Wind_Speed
13 11 13 17 18 17 20 14 15 14 7 9 5 9 16 15 13 14 10 11 12 16 20 30 29 29 26 29 30 35 32 34 32 32 26 23 27 23 25 23 22 21 24 23
10 13 16 15 13 7 11 11 14 15 14 13 16 16 15 15 18 12 11 8 10 11 16 21 30 30 32 31 30 31 31 31 29 30 30 27 23 24 23 25 23 24 24 24
16 14 10 7 6 6 12 12 13 13 12 11 11 15 16 17 19 12 14 6 7 10 6 18 22 28 29 31 34 30 32 28 32 24 27 27 26 25 26 28 28 26 27 26
11 14 7 6 10 10 11 14 14 11 12 9 12 14 14 19 17 15 14 5 12 6 10 13 18 24 27 27 30 33 33 31 29 30 25 29 27 26 30 28 31 32 31 30
12 12 9 8 11 9 11 8 9 7 9 12 15 9 12 1 17 11 10 2 13 14 15 17 19 17 28 25 25 35 38 41 37 35 36 25 32 25 24 30 25 33 36 38
15 4 4 10 11 11 8 4 8 11 11 12 16 12 12 1 8 8 18 16 13 14 15 14 19 24 25 24 17 4 37 45 45 43 42 46 38 33 27 33 31 27 31 40
16 16 13 7 10 10 8 9 8 9 10 12 9 13 12 8 13 17 17 16 14 14 14 13 13 16 19 21 22 19 18 22 23 31 34 41 45 41 39 38 36 27 28 34
12 14 17 13 8 8 14 11 9 13 12 8 11 7 9 16 15 17 18 15 13 13 13 14 12 13 13 15 17 20 20 18 12 21 30 31 33 33 36 35 38 33 36 34
7 4 12 6 3 7 7 11 13 11 12 11 9 11 20 18 18 17 16 14 12 11 10 9 13 11 14 14 18 20 20 19 19 20 14 19 34 34 35 36 34 45 40 34
5 6 7 10 1 9 10 9 5 6 8 10 10 6 5 11 14 13 13 12 10 10 10 9 10 12 13 15 17 18 18 20 20 23 24 24 20 23 33 32 34 35 36 44
8 3 13 6 6 12 6 9 7 8 7 8 9 3 9 12 12 13 11 10 9 8 9 10 11 14 15 16 18 20 20 20 20 21 24 27 25 25 18 23 29 34 38 39
5 2 9 15 16 14 8 10 10 7 9 9 10 8 11 11 10 10 9 7 6 6 7 8 9 12 13 15 16 16 19 18 20 21 24 25 28 25 25 21 26 27 30 34
5 5 7 12 13 15 9 6 8 7 3 9 10 9 10 9 14 9 8 8 6 6 8 7 9 11 15 18 19 19 20 19 17 16 20 25 25 27 26 26 25 25 30 31
4 4 7 10 17 13 11 13 8 10 7 10 12 15 11 11 10 5 6 8 12 12 14 12 7 8 16 19 22 24 23 22 22 20 20 18 23 27 27 25 28 27 26 28
1 6 10 14 15 17 15 16 16 17 16 15 16 17 13 13 10 10 9 9 11 13 14 13 16 15 19 21 22 23 24 26 23 23 23 24 22 22 26 26 25 27 28 28
7 5 8 13 14 16 19 19 19 19 17 17 16 15 12 13 14 14 15 15 15 13 15 16 16 18 20 23 25 25 23 24 27 26 25 25 25 24 21 25 26 26 28 28
5 5 7 12 13 15 15 14 11 10 17 5 6 10 11 10 12 13 16 16 16 16 16 16 16 20 22 24 26 26 28 29 28 28 27 27 28 24 25 21 22 28 31 31
8 8 7 10 11 13 13 1 1 4 7 10 3 10 11 12 13 14 15 16 15 16 15 14 19 21 24 26 28 29 29 29 29 29 30 29 28 28 25 21 20 25 30 30
11 8 8 10 11 13 17 9 4 3 7 14 12 11 11 13 14 14 16 18 16 15 17 20 25 27 28 27 29 31 32 31 32 34 34 31 28 28 25 23 22 23 27 30
3 7 8 11 12 11 11 10 6 3 5 10 9 9 11 13 11 11 18 19 18 23 25 24 26 31 26 29 29 28 29 28 30 30 32 34 36 33 24 22 25 27 26 27
9 8 11 10 11 10 8 4 5 7 3 7 8 10 12 11 11 15 17 17 23 25 27 28 28 28 30 30 28 28 29 27 28 30 31 32 32 34 35 25 25 24 27 28
7 9 9 12 14 14 8 2 5 5 6 8 10 12 13 14 16 17 19 19 22 23 26 28 24 26 29 29 29 28 29 31 32 31 31 31 33 31 31 32 30 27 28 26
10 3 4 5 4 5 10 7 3 4 6 8 11 12 14 14 16 17 16 17 20 25 25 26 26 27 27 30 29 29 33 32 31 31 30 30 31 29 28 27 28 27 24 21
7 5 4 5 6 3 4 4 3 10 11 11 11 12 12 15 15 13 15 15 17 20 21 25 25 26 28 29 30 30 32 33 30 30 30 30 27 28 29 28 27 24 21 20
4 4 3 5 7 5 5 9 10 10 10 10 8 12 14 13 13 14 12 12 17 19 21 24 22 24 28 33 33 34 34 33 28 28 31 28 26 24 27 28 29 24 25 25
9 6 5 2 5 4 5 9 9 7 7 9 10 14 15 15 12 13 11 17 18 19 24 19 24 26 29 33 33 34 33 30 31 30 26 26 24 25 25 24 26 30 30 25
Wind_Direction
201 224 228 228 225 246 271 307 303 308 322 312 239 277 294 296 274 269 188 227 220 183 176 174 181 180 187 190 191 190 194 200 187 186 193 199 209 213 212 222 214 213 198 199
205 229 250 237 256 338 314 297 276 291 302 299 290 276 258 262 269 266 274 269 258 196 177 173 175 180 183 187 195 195 198 199 197 190 193 203 211 215 218 220 227 218 205 200
244 239 204 309 288 247 264 265 281 268 286 290 278 261 259 254 262 243 267 230 321 308 217 175 173 181 182 185 188 194 202 206 210 201 203 205 214 220 215 216 221 223 215 206
225 260 229 226 248 254 251 239 231 267 278 272 285 303 244 218 222 238 243 210 239 354 263 167 172 178 185 184 189 193 198 204 213 219 215 213 213 215 219 214 214 217 213 209
238 224 253 245 251 228 258 346 337 292 282 288 279 264 270 288 183 198 173 183 65 47 44 35 20 174 181 191 196 193 199 204 207 212 222 232 227 231 231 226 226 216 217 209
261 260 280 249 225 243 289 282 259 262 256 254 250 253 277 81 165 130 78 77 65 70 66 48 32 38 32 27 9 253 197 200 211 209 212 218 225 226 228 229 224 224 212 205
224 236 219 216 260 197 206 248 257 235 226 240 303 215 240 77 89 86 90 80 59 59 65 61 39 35 32 35 26 23 25 209 211 216 215 220 224 224 223 225 225 227 220 204
235 201 194 180 228 245 201 226 256 298 307 339 201 252 253 107 116 102 95 88 82 63 58 64 59 32 60 55 42 30 21 19 25 231 229 232 234 234 236 234 231 229 226 221
320 140 87 119 201 239 252 240 233 278 293 282 288 287 13 83 86 86 90 82 74 80 77 59 78 40 34 33 40 31 14 10 13 10 338 250 241 234 232 237 238 237 243 239
323 313 171 142 192 261 273 302 301 246 254 268 277 39 82 109 110 107 96 87 70 55 56 51 46 44 32 25 32 30 14 357 15 9 356 344 324 251 238 238 237 239 243 250
287 295 284 240 219 247 218 215 242 259 279 313 309 61 102 75 103 102 93 74 66 44 47 23 28 25 18 19 19 13 6 351 8 8 348 342 341 350 288 252 249 247 246 246
47 316 278 277 308 325 306 300 307 294 276 280 292 300 102 120 100 101 96 79 56 50 36 8 28 7 9 5 1 353 350 346 351 353 343 335 333 341 331 308 260 258 256 252
22 219 254 259 253 253 250 288 266 273 274 268 279 282 136 129 121 74 48 35 1 14 0 347 21 360 6 2 353 343 336 334 336 335 330 329 328 326 326 324 324 275 264 260
323 277 268 277 302 323 284 281 232 237 253 274 269 283 294 90 95 88 46 13 1 359 351 344 342 355 2 350 341 334 326 330 326 326 319 312 314 318 317 316 318 321 288 271
320 258 261 268 275 287 293 288 285 281 279 271 273 282 314 47 32 35 36 16 350 344 332 336 12 5 346 336 327 322 326 321 319 320 312 306 303 305 310 312 313 318 316 295
141 274 291 277 280 276 270 266 264 263 270 273 271 272 44 35 21 12 356 346 332 339 7 352 347 338 330 325 323 320 313 318 317 310 305 307 307 304 302 306 314 315 310 308
235 263 286 272 292 299 275 269 276 277 251 335 296 46 56 20 8 354 344 340 18 359 346 338 331 324 323 317 312 315 315 312 308 308 304 307 302 301 303 299 309 314 310 303
258 266 263 274 285 270 274 261 1 302 351 8 322 36 24 1 351 342 319 15 353 341 333 324 315 315 314 315 313 309 306 305 302 299 300 295 298 297 293 297 301 306 306 304
214 236 271 255 261 275 280 48 69 34 70 36 19 19 355 347 331 301 5 348 337 329 326 333 334 327 323 325 326 323 317 311 309 310 308 298 295 294 299 295 290 292 296 299
239 211 240 260 269 271 82 82 41 76 214 43 19 358 342 336 313 327 345 330 328 335 333 331 328 322 324 322 317 314 305 309 305 303 304 308 314 304 289 300 293 287 287 291
199 219 230 237 250 264 64 35 317 239 40 2 356 345 341 330 330 331 322 322 324 327 326 323 324 317 315 309 312 307 302 297 299 302 298 300 302 301 306 297 303 305 294 291
242 211 222 229 245 244 19 154 346 23 349 343 348 349 338 335 323 329 323 314 320 321 322 319 314 309 305 312 310 310 303 302 303 300 298 294 297 294 299 302 304 301 296 286
233 12 331 4 50 136 103 91 50 10 337 346 353 344 333 329 314 309 310 339 330 329 328 318 311 315 318 319 314 312 307 305 302 298 299 299 295 290 290 290 287 289 285 278
163 147 253 348 105 75 69 31 50 31 14 351 336 334 312 304 305 308 343 335 325 314 318 317 321 323 316 324 322 312 317 308 302 299 301 298 294 288 285 280 279 283 277 274
20 135 263 273 282 325 79 42 26 359 337 343 329 311 300 294 340 342 336 327 313 319 320 319 326 334 327 334 336 329 325 328 317 311 301 295 294 291 288 282 281 276 281 268
277 338 244 31 55 338 346 12 354 358 340 336 310 307 318 356 328 337 332 319 317 322 311 325 335 335 346 340 332 330 333 329 321 316 310 305 300 298 294 294 296 291 290 274